Starlink 33625

operational
NORAD ID: 63327 Int'l Des: 2025-057 Owner: SPXS Country: US Constellation: starlink
LEOCIRCULAR

About Starlink 33625

Description loading...

Live Position

Loading 3D Globe...

Upcoming Passes

Altitude History

Altitude vs Time

uPlot chart will show altitude changes over time

Two-Line Element Set

1 63327U 25057W 25350.70304266 .00015995 00000-0 58910-3 0 9998
2 63327 43.0002 131.9078 0001333 278.9504 81.1197 15.27603397 43171
Epoch: Dec 16, 2025 • Age: 16 hours

Current Status

Altitude 482.3 km
Velocity 7.63 km/s
Sub-Earth Point 1.58°N, 84.96°W
Launch Date Mar 18, 2025
Age 0.7 years
Type internet

Technical Details

Classification Payload
Mass 575.00 kg
Dry Mass 530.00 kg
Total Mass 575.00 kg
Length 0.30 m
Diameter 4.10 m
Span 29.00 m
Shape Box + pan
Manufacturer SPXS
Bus Type Starlink V2MO
Phase Status In Orbit
Owner/State SPXS/US

Large Constellations

Loading constellations...